Theta_e
291 292 292 293 293 291 291 290 290 290 292 292 292 292 293 294 293 291 294 299 300 302 304 306 308 309 308 308 310 311 312 312 313 314 313 313 313 313 312 314 314 314 315 317 317 317 319 320 320 322 324 326 329 332 334 336 338 341 345 345 346 348 348 349 351 353 353 353 354 354 354 354 354 352 352 352 352 352 352 350 349 349 349 349 351 352 354
291 291 292 293 292 291 291 291 291 292 291 291 292 292 293 293 293 294 295 299 301 303 305 307 308 310 309 309 311 311 310 310 311 311 311 310 311 311 311 312 314 315 315 316 317 318 319 319 318 319 321 322 324 327 330 333 335 339 341 347 347 347 347 349 352 354 355 355 355 355 355 355 356 354 352 352 351 352 351 351 351 351 350 350 349 350 351
289 291 292 293 292 291 290 292 292 291 291 292 293 292 293 294 293 294 297 301 299 304 308 308 309 309 309 309 307 308 308 308 308 308 308 309 309 310 311 311 312 314 315 316 316 316 317 319 319 319 319 320 322 324 327 330 333 337 339 343 347 348 348 350 352 355 356 356 356 355 356 356 356 355 354 352 352 352 352 352 351 353 351 349 347 347 348
287 290 291 291 292 291 293 295 297 297 297 296 296 298 299 294 294 295 295 297 298 303 307 309 308 308 308 306 306 306 306 307 306 305 306 307 308 309 310 311 311 311 312 314 315 316 317 318 318 319 320 320 321 321 324 327 331 336 338 340 342 349 351 351 354 356 355 356 356 355 356 356 356 356 355 353 353 353 351 350 353 352 350 349 350 348 347
287 290 291 290 290 292 289 293 294 294 295 296 299 301 301 301 302 297 294 296 304 305 308 305 306 306 306 306 306 306 307 307 306 305 305 306 307 308 309 310 311 310 310 311 314 316 318 319 318 319 319 320 320 321 323 325 330 334 337 338 343 348 352 354 353 355 356 356 356 356 356 356 357 357 356 354 353 351 349 350 350 351 351 350 350 349 348
288 289 290 291 287 281 283 296 296 296 293 294 293 294 296 301 303 302 304 304 305 305 305 305 304 304 305 306 306 307 306 306 306 306 306 306 307 307 308 310 310 311 312 312 313 315 318 320 319 320 321 320 321 322 323 325 328 331 334 338 342 344 348 354 357 356 356 355 355 356 357 357 357 356 354 354 352 352 350 351 351 350 349 350 350 351 350
287 290 290 286 280 283 294 296 298 300 298 297 296 297 299 301 303 304 303 302 303 303 304 304 304 305 306 308 307 306 306 307 306 306 306 306 307 307 308 308 309 310 311 311 313 314 317 319 319 319 319 320 321 321 322 323 325 327 330 334 340 341 343 345 350 357 357 356 356 357 358 358 357 356 354 355 353 352 351 350 351 350 348 348 349 350 349
290 287 286 278 281 290 293 295 300 302 301 300 299 296 300 302 303 304 302 301 303 303 303 304 305 305 305 307 308 307 307 307 306 306 305 307 307 307 308 308 309 310 310 310 311 313 318 318 318 319 318 320 320 320 322 322 323 326 329 332 335 337 339 341 343 344 349 355 356 357 357 357 356 355 355 355 355 353 352 350 351 351 351 349 348 348 348
284 287 286 286 291 289 293 294 297 298 295 297 295 290 296 300 302 303 302 302 302 302 303 303 304 305 305 305 306 307 307 306 307 306 307 307 308 308 309 309 309 311 311 311 312 313 314 315 317 318 318 320 320 320 321 321 323 325 327 330 332 332 333 335 338 341 343 345 352 355 356 356 355 354 355 355 355 356 352 351 349 349 350 349 350 349 348
291 286 285 284 284 280 289 296 301 301 302 302 302 297 295 300 301 302 302 301 301 302 302 303 304 305 304 302 305 307 306 307 306 307 307 308 309 309 310 310 310 311 311 312 312 312 312 313 315 317 317 318 319 320 321 321 321 323 325 327 328 329 330 330 332 336 341 344 346 349 355 355 355 355 354 355 355 355 352 351 349 350 351 350 351 351 349
288 287 283 282 280 284 295 297 299 302 301 302 303 294 290 298 301 301 302 301 301 301 301 302 303 302 299 300 304 306 306 306 306 305 307 307 308 309 309 309 309 309 311 311 312 312 312 311 313 314 315 316 317 319 321 321 321 321 323 324 325 326 328 328 330 333 336 340 344 345 348 354 354 354 354 354 355 355 353 353 352 353 352 351 351 351 350
289 287 284 282 288 286 293 298 299 301 301 301 298 284 285 296 300 302 302 301 301 301 302 302 302 300 297 300 303 305 305 305 306 306 306 306 307 308 308 309 309 310 312 311 310 310 309 311 313 313 313 315 316 318 319 320 320 321 322 323 324 326 328 330 331 332 334 337 341 343 345 347 354 356 355 354 354 353 353 353 352 352 352 352 350 351 351
289 287 287 288 290 296 298 298 301 302 303 299 288 283 294 300 301 302 302 302 301 302 301 302 299 302 303 303 304 305 305 304 305 306 307 307 307 307 308 308 311 309 309 309 309 309 311 312 312 312 313 313 314 316 319 319 320 321 323 324 325 327 329 329 329 330 334 336 338 341 344 345 347 352 356 355 354 354 352 352 352 352 351 352 351 351 351
287 289 286 286 290 295 300 302 302 303 298 286 286 298 303 302 302 303 303 302 302 302 301 301 301 302 303 304 304 304 304 304 305 305 306 306 307 308 309 310 310 309 308 309 309 309 311 311 311 311 312 312 314 316 317 318 320 322 324 324 325 327 328 329 330 331 335 338 340 341 343 346 349 351 355 355 356 355 354 354 354 353 354 353 351 351 353
288 287 284 284 280 293 301 300 300 302 292 295 301 301 302 304 302 302 302 302 302 301 300 301 301 301 301 302 302 302 303 304 304 304 305 305 305 305 306 307 308 308 307 307 308 309 310 310 311 311 311 311 313 315 315 318 321 323 323 324 325 326 328 329 330 331 335 339 341 343 343 344 345 348 353 354 356 358 358 357 356 355 355 355 354 352 354
284 284 282 283 291 299 303 300 293 300 301 303 303 302 299 302 302 302 302 302 302 302 301 300 300 301 301 302 302 303 303 303 303 304 304 305 305 305 306 306 307 308 307 308 308 309 310 311 311 312 311 311 313 314 315 319 321 323 324 324 325 324 326 328 329 331 332 336 339 340 342 344 344 345 348 353 357 358 357 356 356 356 356 357 356 354 353
290 287 292 296 298 301 303 303 302 305 305 304 304 302 301 301 302 304 302 302 303 302 301 301 301 301 302 301 302 302 302 302 302 303 304 304 304 305 305 305 307 308 307 307 308 309 309 311 311 312 312 311 312 313 315 318 319 321 322 323 324 324 325 327 329 330 331 333 335 336 337 340 343 345 347 351 354 358 358 357 356 357 357 358 357 356 356
296 297 297 299 299 299 300 302 304 303 303 304 304 303 302 303 303 304 302 302 302 302 303 300 301 301 302 302 302 302 302 302 303 304 304 305 305 305 306 306 306 307 307 307 307 308 309 311 311 313 312 312 311 313 315 317 319 320 322 322 323 324 325 327 328 330 330 331 333 335 337 338 341 347 349 351 354 356 357 355 357 358 357 357 357 357 356
291 288 299 296 297 300 301 302 304 305 305 304 304 304 303 303 304 304 304 303 303 303 303 302 301 301 302 302 303 303 303 303 303 303 303 304 305 305 305 306 307 306 307 306 307 308 308 310 311 311 312 312 313 314 315 316 317 319 321 321 322 323 324 326 328 329 330 330 332 334 335 336 338 342 348 350 352 353 356 356 356 356 357 357 356 355 355
291 292 298 299 300 301 302 301 301 301 303 305 305 305 305 305 305 304 304 305 303 304 302 303 302 302 303 302 302 302 302 302 303 303 303 304 304 305 306 306 307 307 307 306 307 308 308 310 311 311 312 312 313 314 315 316 317 318 320 321 321 322 323 325 326 327 328 330 331 332 333 335 336 339 343 347 348 349 351 355 356 355 357 356 355 356 356
295 298 299 299 299 299 299 300 302 304 304 304 305 305 304 304 303 304 305 305 304 304 303 303 303 302 302 302 302 302 302 302 302 303 303 304 304 305 305 306 307 305 306 306 307 307 307 309 310 311 311 312 313 314 315 317 318 319 319 321 321 322 322 324 325 327 328 330 331 332 333 335 336 338 340 344 346 349 353 356 358 358 356 357 359 361 360
291 292 296 300 293 293 298 301 302 303 305 304 304 304 303 303 303 304 303 304 305 305 304 304 303 302 302 303 303 302 302 302 303 303 304 304 304 304 305 305 306 305 306 307 307 307 308 309 310 310 311 312 314 315 316 317 318 318 319 319 320 321 323 323 324 326 329 329 331 332 333 333 335 338 336 325 335 347 349 340 331 322 320 347 358 362 360
292 299 302 302 301 300 301 302 304 305 306 305 303 303 303 304 304 305 304 302 303 303 304 305 304 303 303 303 303 302 302 302 303 303 303 303 303 303 304 304 304 305 305 307 307 307 308 310 310 311 311 312 314 315 317 317 317 317 318 318 319 319 321 322 323 324 326 327 329 331 332 333 334 335 337 340 316 313 322 329 325 320 317 315 313 315 336
300 302 303 303 301 299 302 304 304 304 306 304 303 304 305 304 304 304 304 304 302 302 304 305 305 303 303 303 302 301 302 302 302 302 303 303 303 304 304 304 304 304 305 306 307 307 308 309 310 311 311 312 313 314 315 316 317 317 318 317 317 318 319 320 321 324 325 327 328 329 331 333 334 334 336 338 342 322 312 314 315 312 312 312 313 315 314
299 303 304 304 302 303 304 303 304 305 306 305 303 304 304 304 304 305 304 304 305 304 303 303 304 304 303 303 302 302 301 301 302 303 304 305 304 303 303 304 304 305 305 306 307 308 308 309 310 311 310 311 313 313 315 315 316 316 317 318 318 318 319 321 322 324 325 327 328 329 329 332 334 337 338 340 339 341 342 313 310 311 311 309 309 309 310
304 304 304 303 303 303 303 302 302 302 303 304 304 304 305 305 305 305 305 305 305 306 305 304 303 303 304 303 302 302 301 301 303 303 302 302 302 302 302 303 304 306 306 306 307 307 308 308 308 309 310 311 312 314 315 317 319 319 320 319 319 319 320 321 322 323 324 326 328 329 331 334 336 338 338 340 340 340 340 342 344 325 309 307 306 307 305
304 305 302 300 300 301 301 300 301 305 305 305 304 305 305 305 306 307 307 307 306 305 304 304 304 304 304 304 303 302 301 301 302 302 302 302 302 303 304 305 305 306 306 306 306 308 309 309 310 309 310 311 313 315 317 317 318 319 319 319 319 322 325 325 324 325 328 330 332 333 334 334 334 333 334 335 337 337 338 337 339 341 346 354 324 304 320
305 304 303 299 299 301 303 304 304 305 304 304 305 304 305 306 304 303 303 303 304 305 305 305 304 303 301 302 301 300 301 300 300 301 301 301 303 304 305 305 305 306 306 306 306 307 309 309 308 308 309 311 313 315 315 316 316 318 319 320 319 319 320 321 322 324 326 329 332 333 332 332 332 331 332 332 333 334 334 336 337 338 341 347 353 335 311
303 303 304 303 305 305 304 305 304 304 304 305 306 306 304 303 303 302 302 302 303 303 303 303 304 303 301 301 301 300 300 300 300 300 301 303 304 304 305 306 306 306 306 306 306 307 307 307 308 308 309 312 313 315 316 316 316 318 319 320 319 319 320 322 323 325 327 329 330 330 328 328 328 328 329 330 331 333 335 336 336 337 340 346 349 353 337
304 304 303 303 304 303 302 301 302 303 303 304 304 304 305 303 301 301 301 301 302 301 302 303 302 301 302 301 301 300 300 300 301 301 302 303 304 305 306 306 306 306 306 305 305 306 307 307 308 308 310 312 314 316 317 318 319 320 320 321 320 320 321 323 324 326 327 327 328 326 327 327 327 328 328 330 332 333 335 336 337 339 341 344 341 348 350
304 303 303 303 302 301 301 302 303 303 304 304 304 303 303 303 302 301 302 302 303 302 302 301 301 301 301 300 301 301 301 301 302 302 303 304 305 306 306 306 304 303 304 305 307 307 308 308 308 308 311 313 315 316 317 318 318 319 319 320 321 320 320 320 322 324 324 324 325 325 325 326 326 327 328 329 331 334 335 337 338 340 340 343 346 348 351
301 301 301 301 301 301 302 303 303 303 303 304 302 301 302 302 302 301 302 302 302 302 301 301 301 300 300 301 301 301 301 301 302 303 303 304 305 305 306 306 306 308 307 307 307 308 308 308 308 310 313 314 316 318 318 317 319 319 319 320 321 322 323 321 323 323 323 323 324 324 324 324 325 327 328 329 331 332 334 336 338 339 340 342 344 348 352
300 299 299 300 300 301 301 303 302 302 303 302 302 303 303 304 303 302 302 303 302 302 301 300 301 301 301 301 301 301 301 302 302 302 302 303 303 304 305 305 306 307 308 308 308 308 308 308 309 311 313 314 316 317 318 318 318 319 319 320 320 322 324 322 321 321 322 322 321 321 322 323 324 324 324 326 328 329 331 332 335 339 341 341 344 348 350
302 302 302 303 302 301 300 301 304 303 303 304 303 303 303 303 303 303 303 303 302 301 301 301 301 301 302 301 301 301 301 300 299 300 301 301 302 303 304 305 307 308 309 309 309 308 308 309 310 311 312 314 315 317 317 317 318 320 321 321 320 320 320 320 320 320 319 320 320 320 320 320 320 320 322 324 325 327 329 330 332 335 338 341 344 347 335
307 308 307 305 305 303 302 301 302 303 302 300 301 303 304 304 304 303 303 303 301 301 302 302 301 301 301 301 301 300 300 299 299 300 301 302 302 303 304 305 306 309 309 308 308 309 309 310 311 312 313 314 315 316 316 318 319 319 320 320 321 320 319 319 319 318 318 317 317 316 316 317 318 319 320 321 322 324 325 327 328 331 333 337 341 345 341
307 306 305 305 305 304 304 304 303 303 303 303 302 302 303 304 303 304 302 302 302 302 302 301 301 301 301 300 300 300 300 300 300 301 301 301 302 303 303 304 305 306 307 307 309 310 310 311 313 313 313 315 316 317 317 318 319 319 320 320 319 318 317 316 316 316 316 315 315 315 314 315 316 317 317 318 320 321 322 324 327 330 333 336 339 343 344
306 305 304 304 305 306 305 305 305 304 304 304 304 304 303 304 303 303 303 302 302 302 302 301 300 300 300 300 301 300 300 300 300 300 301 301 302 301 302 303 304 304 306 306 309 313 312 313 314 316 316 316 317 317 317 318 318 319 318 316 316 315 314 313 313 313 313 314 314 313 314 314 314 314 315 316 316 317 319 321 323 326 330 332 334 337 339
306 306 305 305 305 305 305 305 305 305 304 304 305 305 305 305 304 303 302 302 302 302 302 301 300 300 301 301 298 297 298 299 299 299 300 299 301 300 301 302 301 302 302 302 306 309 310 313 314 314 315 315 315 315 316 317 318 318 315 313 314 314 313 312 311 311 311 311 312 312 312 312 312 312 312 313 314 315 316 317 317 317 317 317 316 315 314
305 305 306 306 306 305 305 304 305 305 305 303 303 304 305 305 304 303 302 302 302 303 302 300 300 299 299 297 296 296 296 297 297 298 299 299 300 299 300 302 302 302 304 307 307 308 311 312 311 311 312 312 313 314 315 317 317 315 313 312 312 312 312 311 309 310 310 310 310 310 310 310 311 310 310 310 311 311 312 311 311 310 309 309 308 307 306
305 304 305 304 303 304 304 304 304 304 305 305 304 303 303 303 302 302 301 301 301 302 301 299 298 298 297 296 295 295 295 296 297 297 297 299 299 299 300 302 302 304 306 307 307 307 309 310 310 309 310 311 312 313 314 315 314 314 312 312 311 312 311 310 309 309 308 308 308 309 309 309 310 309 309 308 308 308 308 308 307 306 305 304 304 304 304
304 305 305 304 304 304 303 303 303 304 304 304 304 305 305 303 302 301 300 300 301 301 299 299 297 297 296 296 296 295 296 296 296 297 297 298 297 297 298 297 301 304 305 306 306 306 307 308 308 308 308 310 312 312 313 312 312 312 311 311 311 311 310 310 309 307 307 307 308 307 307 308 308 307 307 306 305 305 305 304 304 304 303 302 302 302 302
301 302 303 303 304 304 304 304 305 303 304 304 305 304 304 303 302 301 301 301 301 300 299 298 298 297 297 297 297 296 295 295 296 296 297 297 296 296 296 298 303 303 305 306 306 305 306 306 307 308 308 309 310 309 309 310 310 310 309 309 308 309 308 308 308 307 307 307 306 307 307 306 306 305 305 304 304 303 303 302 302 302 301 301 301 301 300
300 300 300 301 302 304 304 304 304 303 303 304 304 304 303 303 302 302 301 300 300 299 298 298 298 298 297 297 296 295 294 295 295 295 296 298 299 299 298 299 302 303 304 305 305 304 304 305 306 306 307 308 307 307 307 307 308 308 308 308 308 307 307 306 306 306 306 305 305 306 305 305 304 303 303 302 301 301 300 300 299 299 299 299 299 299 299
300 300 300 300 301 303 304 304 304 304 302 302 304 303 303 302 302 301 300 299 299 299 298 297 297 297 297 296 295 295 295 295 294 295 295 295 298 300 300 301 302 303 304 304 304 304 304 304 305 305 306 305 305 305 306 305 306 307 307 307 307 306 306 305 305 305 304 304 304 304 304 304 303 302 301 300 299 299 299 298 298 298 298 298 297 297 297
301 301 300 301 303 303 302 302 302 302 303 303 303 303 302 302 301 301 300 299 299 298 299 298 298 297 297 297 296 295 296 296 296 295 293 293 293 295 300 302 302 302 303 303 303 303 303 304 304 304 304 304 304 304 304 304 305 305 306 305 305 305 305 305 304 304 304 303 303 303 303 302 302 301 301 300 300 298 298 298 298 298 298 297 297 296 296
300 301 301 302 302 302 303 303 303 304 303 302 302 302 302 301 301 300 300 299 299 299 299 298 298 298 298 298 298 298 297 298 298 298 298 296 294 296 300 301 301 301 301 302 302 302 303 303 302 302 303 303 303 303 303 303 304 304 304 304 303 303 303 303 303 303 303 303 302 302 302 301 301 301 301 300 299 299 299 299 298 297 298 297 297 297 297
301 300 301 302 303 303 303 302 304 304 302 301 300 300 301 301 300 300 300 300 300 299 299 299 299 299 299 299 298 296 295 296 297 298 299 299 300 300 301 300 300 300 300 300 300 301 302 302 302 301 302 302 302 301 301 301 301 301 301 301 301 302 302 302 302 302 302 303 302 302 301 301 300 300 300 300 299 299 299 298 298 298 298 299 299 299 298
301 300 300 301 302 302 303 302 302 301 300 300 301 301 301 301 300 300 300 300 300 300 300 300 301 300 300 300 300 299 299 296 293 295 298 299 299 300 300 299 299 299 299 299 299 300 301 300 301 301 301 301 300 300 300 300 300 300 300 300 300 300 300 300 301 301 301 301 301 300 300 300 299 299 299 299 299 299 298 298 297 297 297 297 297 297 297
300 300 301 301 300 302 302 301 301 300 300 301 301 301 302 301 300 300 300 299 299 299 299 300 300 300 301 301 301 302 301 300 298 295 299 299 299 299 300 299 299 299 299 298 297 298 300 299 299 300 301 300 299 299 299 300 300 300 300 299 300 300 300 300 300 300 301 301 300 300 300 299 299 298 298 299 299 299 299 298 298 298 297 297 297 298 297
300 302 301 299 299 301 301 300 300 300 301 302 301 302 302 301 299 298 299 299 299 299 299 299 300 302 302 302 302 302 302 301 301 300 300 300 300 299 300 300 299 299 298 298 297 298 299 299 299 299 299 298 299 299 299 299 299 299 299 299 300 299 299 300 299 299 300 300 300 300 300 299 299 299 300 299 299 298 298 298 298 298 297 298 297 297 297
300 301 300 301 301 301 301 302 302 302 302 302 303 303 302 301 299 300 299 300 299 299 298 300 300 301 301 302 302 302 303 302 302 300 300 300 300 300 300 299 300 300 298 298 297 297 297 297 297 297 297 297 298 298 299 299 298 298 298 298 298 298 298 299 299 299 299 299 299 299 299 299 299 298 298 298 299 298 298 298 297 297 297 297 296 296 296
302 302 302 300 299 300 301 302 303 303 303 303 303 302 301 301 300 300 300 299 300 299 298 299 299 301 302 301 302 301 301 301 301 301 300 300 300 299 300 299 299 299 299 298 297 297 298 298 298 298 297 297 297 297 298 298 298 298 298 298 298 298 298 298 298 298 298 298 298 299 299 298 298 297 297 297 297 298 298 297 297 297 297 297 297 297 296
Wind_Speed
6 4 5 3 3 3 2 2 3 5 6 7 6 6 3 3 3 5 8 6 7 6 4 3 4 4 5 6 8 8 7 8 10 11 13 14 15 15 16 17 16 15 15 13 15 15 14 15 16 14 13 12 11 10 9 7 7 5 7 14 14 15 14 14 14 13 12 12 11 12 12 11 12 12 12 12 11 11 11 11 11 12 13 13 12 12 12
5 5 4 3 4 3 2 2 3 3 4 3 3 2 2 2 4 6 7 6 8 6 5 4 4 3 4 4 5 7 10 11 12 12 13 14 14 15 15 15 15 15 14 14 12 13 14 15 15 15 13 12 12 12 10 9 9 7 8 5 12 15 15 15 13 13 12 11 11 12 12 12 12 12 12 12 11 12 12 12 11 11 11 12 12 13 12
4 3 3 2 4 5 3 4 2 2 0 1 2 2 1 0 2 5 9 10 7 4 3 5 4 3 3 4 7 9 9 12 12 13 13 13 14 14 14 14 15 14 14 14 14 15 15 14 14 12 11 11 11 11 10 11 9 9 8 6 6 10 15 14 13 12 11 11 11 11 12 12 11 12 13 11 11 12 12 12 12 11 11 12 13 13 14
3 1 3 3 4 1 4 6 7 7 5 5 4 4 3 1 4 6 9 7 6 6 5 5 4 3 3 5 6 7 8 10 11 13 14 13 13 14 13 13 13 15 15 14 15 15 15 14 14 13 11 12 11 11 11 11 10 10 8 7 6 7 7 11 11 11 11 12 12 12 11 12 12 12 12 12 12 12 12 13 12 12 13 14 13 14 12
3 1 2 5 1 5 4 3 5 5 5 4 5 5 5 5 2 3 3 4 7 9 6 6 3 2 2 3 4 5 7 8 9 11 11 12 13 13 13 13 13 14 14 14 14 14 13 12 13 13 12 11 10 11 11 10 9 10 9 7 7 5 6 7 11 11 11 12 12 12 12 12 12 11 12 12 13 13 15 14 12 13 14 14 14 14 14
4 2 2 3 2 4 2 6 3 3 3 3 1 3 3 2 3 3 5 7 7 6 5 4 3 1 1 0 3 4 5 6 8 9 9 11 11 12 12 12 12 13 12 11 12 13 12 12 13 12 11 11 10 9 9 9 9 9 9 8 7 7 7 7 7 10 10 12 12 13 12 11 11 12 13 14 15 14 13 12 12 13 14 15 13 13 14
3 2 2 3 4 2 6 1 2 1 2 2 4 3 1 2 2 5 7 7 5 4 4 4 3 2 1 3 3 3 6 7 6 7 8 10 11 12 11 12 13 12 13 13 13 13 12 12 12 12 12 12 12 11 9 9 9 9 9 9 8 8 8 8 8 7 11 11 12 12 11 12 11 12 13 13 13 13 12 13 13 13 14 15 14 14 15
2 1 4 2 1 4 2 2 1 1 2 1 2 2 5 3 3 2 5 6 4 3 3 1 1 4 3 4 5 4 5 8 8 8 9 9 10 11 11 12 12 13 13 13 14 14 12 11 11 11 11 12 13 12 10 8 9 9 9 8 8 9 8 9 8 9 8 10 12 11 12 11 12 13 13 13 13 13 12 12 12 12 12 13 14 15 15
1 1 0 1 2 2 2 3 2 1 2 1 0 3 4 3 2 1 3 4 3 3 2 2 3 4 2 6 5 3 5 7 8 8 8 8 9 9 10 11 12 11 12 12 12 13 12 11 11 10 11 11 11 12 11 9 9 8 9 8 9 9 9 9 9 9 8 9 8 11 12 12 13 14 14 14 13 11 12 13 13 13 13 14 13 14 15
1 2 2 1 3 3 5 2 6 2 2 2 2 2 2 3 3 2 3 3 3 2 2 3 6 4 4 5 5 4 4 8 9 8 8 8 8 9 9 10 11 11 11 12 12 11 12 13 11 11 12 12 11 10 11 11 10 9 8 9 9 9 9 9 10 10 8 7 7 8 10 14 13 14 13 12 12 11 13 14 14 14 13 13 13 14 15
3 2 2 2 2 1 4 8 6 4 3 3 4 2 3 4 1 3 2 3 3 3 4 5 6 4 3 2 4 3 9 10 9 10 9 9 9 9 10 11 11 12 12 13 12 12 11 12 13 13 13 12 11 11 10 11 11 10 8 8 10 11 10 9 9 8 9 8 7 7 8 10 14 14 13 12 11 11 12 13 13 12 12 12 13 13 15
2 2 2 2 3 1 5 7 6 5 4 4 4 4 2 6 3 2 2 2 2 2 3 4 3 3 5 5 4 8 10 11 11 10 11 11 10 10 10 10 10 12 12 12 12 12 12 11 12 13 12 11 11 10 10 10 10 11 11 9 8 9 10 10 9 8 8 8 8 7 7 8 9 12 14 12 12 12 12 12 12 12 12 12 14 13 13
2 4 3 3 3 2 2 7 7 5 6 5 2 3 4 7 5 4 3 3 1 0 2 2 4 2 3 6 10 10 10 11 11 10 10 11 11 11 11 10 11 11 11 11 12 13 11 11 11 11 11 11 11 11 10 10 10 10 11 11 10 9 8 9 10 10 8 7 8 8 7 7 8 9 10 14 14 13 13 12 13 13 14 13 14 14 14
3 2 3 3 5 0 6 5 7 6 5 4 3 4 4 7 6 5 4 3 3 3 3 3 4 6 7 8 9 10 11 10 11 11 11 12 12 12 11 11 10 10 12 12 13 13 11 11 10 10 10 11 12 11 11 11 11 11 11 11 11 10 10 10 10 10 9 8 8 8 7 6 6 8 7 8 12 13 13 12 13 14 13 13 13 14 13
2 2 1 2 3 3 6 12 5 3 4 1 5 5 3 5 4 6 6 4 3 4 4 5 6 7 9 9 10 10 10 10 11 12 12 13 13 14 14 13 11 10 12 14 13 13 11 11 10 9 10 11 11 11 12 13 12 11 11 11 11 11 10 10 9 10 10 9 8 7 7 7 9 8 8 12 13 13 13 14 14 14 14 13 13 14 13
2 4 5 3 1 4 9 9 4 6 3 4 6 3 4 7 5 5 4 5 5 4 6 6 7 8 9 9 9 10 10 10 10 11 11 12 13 13 14 14 14 13 12 12 14 14 12 10 9 9 9 10 10 11 13 12 12 11 11 11 11 11 10 10 10 9 10 10 9 8 8 8 8 9 10 11 12 12 13 14 14 13 13 12 13 14 15
5 3 3 0 1 2 5 3 1 5 6 5 4 3 3 5 6 6 4 5 6 6 7 7 7 8 7 9 10 11 11 12 12 12 12 13 13 14 14 15 15 13 12 14 14 16 13 12 10 9 9 10 12 13 12 11 12 12 12 12 11 11 10 10 10 9 10 10 10 8 8 9 10 8 10 12 12 12 12 14 15 15 14 14 16 16 14
5 8 7 2 2 4 6 7 4 2 4 3 3 4 4 5 4 6 5 5 5 6 5 6 7 7 8 9 10 10 12 13 13 13 13 13 13 13 13 14 14 14 14 15 15 16 16 12 11 9 9 9 12 13 12 11 12 11 11 11 12 11 11 10 10 10 11 11 11 10 9 8 10 9 10 10 11 11 13 14 15 15 15 16 16 17 17
2 3 5 9 12 9 8 8 6 5 4 4 4 6 5 4 5 6 7 6 6 6 5 7 8 9 10 10 10 11 11 12 13 14 14 13 13 14 14 14 14 14 14 14 15 15 17 15 11 10 10 10 11 12 12 12 11 11 11 11 11 11 11 10 10 9 11 9 9 9 9 8 9 10 9 9 10 10 12 13 14 15 16 16 16 17 17
7 5 3 2 2 5 6 6 7 9 8 7 7 7 6 5 5 6 6 6 6 5 6 8 9 10 10 10 11 11 11 12 12 13 14 14 14 13 13 14 14 14 14 15 16 16 16 15 11 10 10 11 11 12 12 12 12 11 11 10 10 11 13 12 10 9 9 12 11 9 8 7 8 10 11 11 10 11 12 12 14 15 16 16 15 15 14
9 9 11 9 6 8 9 8 8 7 6 5 7 7 7 7 7 7 7 7 6 6 7 7 9 10 10 11 12 13 13 13 13 13 14 15 15 15 14 15 15 14 14 15 17 17 18 16 14 12 12 12 12 12 12 11 11 11 11 12 11 12 11 11 11 8 8 11 10 9 9 8 8 9 11 11 11 11 13 13 14 15 15 16 15 13 13
7 8 6 7 5 5 5 10 13 12 11 8 8 6 6 7 7 7 8 8 7 8 7 8 8 9 10 11 12 14 13 14 15 15 15 15 15 16 16 15 16 18 18 17 18 18 17 16 15 13 13 12 11 11 10 10 10 11 11 12 12 11 9 10 11 10 9 9 10 10 9 9 10 11 12 15 14 13 13 12 15 17 12 12 13 12 14
8 7 7 7 7 7 7 3 5 7 7 7 8 8 8 8 8 7 7 8 8 7 8 8 9 9 10 11 12 14 13 14 15 15 16 17 17 17 18 18 18 18 18 18 19 19 18 16 16 15 13 12 11 10 10 10 11 11 11 11 11 10 9 9 10 11 11 10 10 10 9 10 10 12 12 12 15 19 19 18 19 22 24 26 24 20 14
10 11 7 6 7 7 5 3 5 6 5 7 8 8 7 7 7 7 6 7 8 8 8 8 8 10 11 12 12 15 15 15 17 18 18 19 19 19 17 16 18 18 18 19 19 20 18 16 17 16 15 14 12 12 11 11 11 11 11 10 9 9 10 9 11 11 10 11 12 11 10 8 9 9 11 12 12 12 17 18 18 21 22 24 26 24 24
10 9 4 6 8 9 3 2 2 3 5 7 7 7 7 7 7 6 6 6 7 8 9 8 9 9 11 12 12 14 17 18 18 19 20 19 19 18 17 17 17 17 17 16 16 17 17 17 17 17 16 16 13 12 11 11 12 12 12 11 11 11 11 10 10 10 11 11 10 9 10 10 10 10 10 9 11 13 10 14 19 21 21 22 23 24 23
12 9 4 2 3 5 1 1 5 6 5 7 6 6 6 6 5 5 6 7 7 7 8 9 11 11 10 12 14 17 18 18 19 19 17 17 17 17 17 18 18 18 18 17 17 19 19 19 18 18 18 18 14 12 11 11 11 12 13 12 12 10 8 8 9 8 9 10 10 10 10 10 10 10 10 10 11 11 12 14 12 12 16 21 22 20 20
11 8 3 4 7 7 7 8 4 4 6 7 8 6 5 4 4 5 5 5 7 7 8 10 11 11 11 12 16 16 17 19 19 18 16 17 18 18 17 17 18 20 20 19 19 19 20 20 19 18 19 18 14 12 11 11 12 13 13 12 11 13 21 16 10 10 10 10 11 11 11 9 10 10 11 11 11 11 12 12 12 13 13 11 12 16 16
7 7 10 10 10 9 5 8 7 3 3 5 6 6 4 2 3 5 6 8 8 8 8 9 9 11 14 15 16 16 16 17 17 17 17 17 17 16 17 19 20 20 20 20 20 20 19 19 20 20 19 18 13 12 13 12 13 13 12 12 12 10 9 12 11 9 9 10 11 12 11 10 10 11 10 10 11 11 11 12 13 15 14 12 11 10 16
8 8 9 11 9 3 5 3 3 4 5 4 4 3 3 4 6 6 7 8 9 9 9 10 10 13 14 15 15 16 16 17 18 18 18 17 17 17 18 19 20 20 19 20 21 20 20 20 20 20 19 17 13 12 12 12 13 12 12 12 12 11 9 8 9 9 9 10 12 13 11 10 9 10 11 11 10 10 10 11 12 13 12 12 12 12 5
8 6 7 8 6 4 5 5 6 6 5 5 5 5 5 5 5 7 7 9 9 9 10 10 12 13 13 15 15 16 17 17 18 18 17 18 18 19 19 19 19 21 20 19 20 20 21 20 19 19 18 15 13 12 12 12 12 12 13 14 13 10 9 9 8 10 10 9 9 10 12 10 10 10 11 11 10 10 11 12 12 12 11 11 11 12 12
3 5 7 6 6 7 8 7 5 5 5 4 4 4 4 4 6 7 8 8 8 9 10 12 13 14 14 15 15 15 16 16 17 18 18 18 18 18 18 18 18 19 17 16 16 18 19 18 18 19 17 15 14 13 12 12 11 12 12 11 9 13 15 17 12 10 9 10 12 12 13 11 10 9 9 11 10 9 11 12 11 12 12 12 11 12 11
4 6 7 6 7 8 7 4 4 4 4 3 3 5 6 6 7 8 8 8 9 10 12 13 13 14 14 14 14 15 16 16 17 17 17 16 16 15 16 18 19 22 20 18 19 18 18 17 20 18 15 13 13 12 11 11 12 12 11 10 10 9 9 11 8 9 8 10 10 11 10 9 9 9 10 10 10 11 11 11 12 12 11 11 11 10 8
8 6 6 7 5 6 6 5 5 6 5 5 6 5 5 4 5 6 7 7 8 9 11 12 13 14 15 14 14 15 15 14 16 17 17 16 16 16 17 17 19 20 18 16 18 17 17 18 17 16 15 14 14 13 12 12 12 11 10 10 9 9 9 7 8 9 10 10 9 9 8 8 8 9 9 9 10 11 11 13 14 12 11 11 11 10 8
11 8 8 10 9 7 7 6 5 5 4 4 4 3 4 5 5 6 7 7 8 10 11 13 14 14 14 14 14 14 15 14 13 14 16 17 16 17 18 19 19 18 16 15 16 15 14 15 15 15 15 14 13 11 12 11 11 11 11 10 9 8 8 8 8 9 9 9 8 9 9 9 8 8 8 9 10 9 10 11 11 11 11 10 8 8 7
9 5 4 6 6 6 5 5 4 4 4 4 4 4 4 4 4 5 6 7 8 9 11 12 12 13 13 14 14 14 14 14 14 15 15 15 15 16 17 18 19 13 11 13 14 14 15 15 14 14 14 14 13 11 10 11 11 11 10 10 10 9 8 8 8 7 7 7 6 7 7 8 8 8 9 9 8 9 10 10 10 10 10 10 9 9 7
6 4 4 5 5 5 5 4 4 4 4 4 5 5 5 4 5 5 5 7 8 9 11 12 12 12 13 14 13 13 13 14 14 14 14 14 13 12 14 13 15 13 10 10 11 12 13 13 17 20 13 10 10 9 10 9 9 9 9 9 8 7 7 7 6 6 6 6 7 7 7 9 9 8 8 7 7 9 10 9 9 8 8 9 9 9 8
7 7 7 6 5 5 5 3 4 4 4 4 4 5 5 4 3 4 5 6 8 9 10 10 11 12 13 13 12 11 11 12 12 12 13 12 11 11 13 12 10 13 11 7 5 6 9 10 15 21 15 8 8 7 7 11 7 7 7 5 6 7 6 5 5 5 5 6 7 7 8 7 7 7 7 6 7 8 8 9 8 7 7 7 6 6 5
8 7 7 6 6 6 5 4 3 4 3 4 4 3 4 2 2 4 5 7 8 9 9 10 11 12 12 10 9 11 13 12 13 13 12 12 12 10 10 9 9 9 8 9 9 8 5 5 10 7 3 4 5 5 7 10 11 6 3 4 5 5 4 4 5 5 5 5 6 7 7 6 7 6 5 5 6 7 7 6 5 4 3 4 4 5 5
7 4 4 4 4 4 3 3 4 3 4 4 2 2 2 0 2 4 5 7 8 8 9 10 10 10 10 10 11 11 12 12 13 12 12 13 10 8 8 9 7 10 10 8 8 7 8 6 2 3 4 4 4 5 6 9 7 3 3 4 5 3 3 4 4 4 5 5 6 5 5 6 5 5 4 4 4 5 5 5 4 4 5 5 5 6 6
8 7 7 6 5 5 4 5 5 4 3 2 3 2 1 1 2 4 6 7 7 7 8 9 9 9 9 9 10 10 11 11 11 11 11 11 11 10 9 7 8 10 12 12 8 7 10 13 7 3 4 4 4 4 5 5 4 3 4 4 4 3 3 3 2 2 3 4 5 5 5 4 4 3 3 3 3 4 4 4 5 5 6 6 7 7 8
4 5 6 7 6 5 5 5 4 4 3 2 1 1 2 1 2 4 5 6 6 6 7 8 8 9 9 9 9 10 10 10 10 9 10 9 9 8 9 9 9 9 10 8 8 8 9 9 9 5 4 4 4 2 3 3 3 4 4 3 2 2 2 1 1 0 2 3 3 3 3 3 2 2 3 3 4 4 5 5 6 6 6 6 7 8 9
4 5 3 5 5 6 6 4 3 3 3 2 2 3 3 1 2 3 4 5 5 5 6 7 9 9 9 9 9 9 10 11 11 10 9 8 8 7 8 8 10 9 15 12 11 11 9 8 8 7 5 4 3 3 2 2 2 3 4 4 3 2 1 1 1 1 1 1 1 1 1 1 1 3 3 4 4 5 5 6 7 7 7 7 8 8 9
9 5 2 3 4 5 5 5 5 3 4 4 4 4 3 2 2 3 4 4 4 5 6 6 7 9 9 9 9 9 9 10 11 11 10 8 8 7 9 9 10 10 15 9 10 8 8 7 7 6 7 5 2 2 3 3 2 2 4 5 5 5 3 2 2 2 2 1 1 2 3 3 4 4 4 4 4 5 6 7 7 7 7 8 9 10 10
7 5 4 3 4 3 4 5 5 4 6 6 5 4 3 3 3 3 4 4 4 6 6 6 7 8 8 9 9 8 8 8 9 9 9 8 8 7 9 8 7 11 17 8 8 8 7 7 7 8 10 7 5 5 4 4 4 3 3 4 5 6 5 4 4 3 3 3 3 3 4 5 5 5 6 5 5 6 7 8 7 7 7 8 8 9 10
8 7 6 3 4 4 6 6 5 6 7 7 5 4 4 4 4 3 3 4 5 5 6 7 7 8 8 9 8 8 7 8 9 10 9 9 10 9 10 10 10 9 11 14 8 8 7 6 9 12 9 10 9 9 6 5 4 5 4 4 7 6 6 4 4 5 5 5 5 5 6 6 6 6 6 6 7 7 7 8 8 7 7 7 8 9 9
7 7 6 5 6 6 4 4 6 8 8 6 6 5 4 4 3 3 4 4 5 5 6 7 7 8 8 9 9 9 8 7 8 9 8 9 9 9 9 11 7 9 14 15 7 8 6 13 15 13 13 13 12 7 5 6 6 6 7 6 6 7 5 5 5 5 6 6 7 7 7 6 7 6 6 6 7 8 9 10 9 9 8 9 9 9 10
6 6 4 4 5 3 4 6 6 7 7 6 5 5 4 4 3 3 4 4 4 5 5 6 6 7 7 8 8 8 7 7 6 8 8 8 9 10 11 13 12 14 12 9 8 8 7 9 12 16 16 16 14 7 7 6 6 6 6 7 7 6 5 6 7 7 6 6 7 7 8 8 8 8 8 8 8 8 8 9 9 10 10 11 11 11 11
7 6 4 3 4 4 7 7 7 6 5 5 5 5 5 4 4 4 4 4 5 5 5 5 5 6 7 7 7 7 7 7 7 8 8 8 7 8 7 6 10 15 15 14 15 15 21 19 19 18 18 16 9 8 8 7 7 7 7 7 7 7 6 7 7 8 8 9 8 7 7 6 6 7 8 8 8 8 9 9 10 10 10 10 10 11 11
8 5 3 3 3 5 6 6 6 5 5 6 6 6 6 5 5 4 4 4 5 4 5 6 6 7 8 8 8 6 6 7 6 6 7 7 7 7 8 10 17 17 12 10 11 10 18 22 20 20 20 14 9 8 8 8 8 8 8 8 7 8 7 7 8 8 9 9 9 8 7 7 7 8 10 10 10 11 11 11 11 10 11 11 12 12 11
7 5 4 3 3 3 4 4 4 4 5 5 5 5 5 5 4 4 4 4 4 5 4 4 6 6 5 5 5 5 5 6 7 7 7 8 9 9 9 9 10 16 16 11 11 10 15 21 20 20 15 10 9 9 8 8 9 9 8 9 9 8 9 11 12 14 10 10 9 8 7 7 8 10 9 9 11 11 12 11 11 14 18 14 12 11 10
7 5 4 2 1 2 3 3 4 4 5 5 5 4 4 4 5 5 4 4 3 4 4 5 5 5 5 5 5 6 6 6 6 8 7 8 9 10 12 10 11 11 11 11 10 9 9 9 10 11 12 11 10 10 9 10 9 10 10 9 9 8 9 10 9 9 9 10 7 8 8 7 8 10 10 9 9 9 11 12 11 11 12 11 11 11 11
5 5 5 4 3 2 2 3 4 4 5 5 5 4 4 4 4 4 5 5 3 4 4 4 4 4 4 5 5 5 6 6 5 5 7 8 8 8 10 12 9 10 10 9 8 8 8 10 12 15 14 11 10 10 13 16 11 10 11 10 10 10 10 10 10 10 10 10 8 7 9 8 8 9 10 11 10 10 10 9 9 9 10 9 9 10 10
Wind_Direction
82 73 87 67 72 50 22 351 339 5 15 20 52 66 59 344 360 119 154 168 131 127 115 108 76 60 57 35 16 12 10 16 20 21 22 22 20 17 18 17 16 14 12 5 5 8 10 11 11 11 13 11 8 11 14 11 9 355 238 214 216 213 210 212 212 212 209 210 208 205 203 203 204 208 209 209 207 205 200 204 210 213 213 214 213 214 217
95 74 52 17 18 19 320 6 358 346 0 34 30 37 9 350 79 92 143 147 127 125 126 123 103 78 61 49 28 22 22 22 20 21 23 22 19 18 16 11 10 10 6 8 2 1 5 8 9 7 5 5 3 2 1 6 3 356 352 307 224 216 215 210 209 205 202 202 204 203 202 205 205 206 209 208 206 205 208 208 209 210 212 213 215 216 216
98 43 358 340 1 355 358 25 50 82 156 105 109 135 147 214 116 119 139 132 133 137 136 129 117 90 86 70 50 40 28 20 17 19 18 16 15 15 13 9 7 4 3 3 2 5 3 2 3 3 358 353 356 359 357 359 354 358 346 341 318 235 222 218 212 206 201 202 206 205 204 205 203 205 208 209 209 207 208 208 209 204 205 211 217 221 220
128 40 327 12 358 53 100 90 68 68 88 98 76 95 65 142 112 121 150 158 153 158 156 139 132 103 71 61 49 46 36 25 22 20 15 11 8 7 5 7 3 2 1 359 359 1 358 357 359 357 351 350 350 354 351 350 346 349 348 347 341 333 269 229 213 203 205 207 208 210 207 208 207 206 204 206 208 207 208 211 206 208 210 213 215 218 220
138 115 296 335 310 162 167 120 74 55 79 63 99 88 58 36 345 165 177 108 116 144 150 146 133 138 93 49 41 41 38 33 28 22 13 8 5 1 1 1 358 360 357 354 353 353 354 354 354 351 350 344 344 342 341 335 337 345 344 344 347 337 329 279 232 212 208 207 208 211 209 208 208 204 204 208 212 213 213 213 211 207 212 211 212 213 219
142 196 338 282 212 210 152 87 49 346 352 2 68 81 37 62 318 31 45 99 109 123 142 137 111 79 28 1 85 56 35 26 21 15 14 8 1 359 359 355 356 353 347 348 348 347 346 347 347 343 346 343 334 333 330 331 340 344 341 343 345 348 346 336 274 230 213 212 213 213 209 207 205 206 209 212 215 216 216 211 208 210 213 214 215 213 216
146 160 217 198 218 198 88 75 0 318 271 251 277 328 108 147 137 113 103 100 95 68 61 57 52 12 269 194 161 100 55 34 22 10 7 1 355 354 352 350 352 351 346 340 341 345 345 343 340 342 344 344 340 336 339 342 345 339 342 343 352 354 354 349 348 279 225 216 220 214 210 208 206 210 211 216 215 216 216 213 210 211 216 217 217 215 217
117 181 183 214 169 60 298 317 5 93 135 100 204 139 91 93 86 70 103 95 109 111 107 68 351 317 324 168 161 120 56 26 13 6 358 351 350 348 346 344 343 344 344 343 338 336 333 337 336 340 338 339 337 334 334 342 339 338 340 348 355 353 351 353 349 352 324 250 225 218 215 210 211 213 215 213 212 211 216 220 221 220 217 220 220 219 220
190 122 154 25 25 243 166 156 103 115 102 62 303 223 115 96 89 97 113 104 96 102 90 45 349 320 235 180 179 167 29 14 5 358 344 343 339 334 335 336 335 335 334 337 337 329 329 331 334 338 335 332 332 330 333 339 336 336 340 348 354 349 348 342 344 341 335 341 308 243 220 214 214 216 216 216 216 212 216 221 223 221 220 219 221 223 221
269 189 157 156 164 214 170 130 125 135 78 73 85 312 175 134 116 94 117 109 90 45 34 18 345 301 222 207 165 176 3 354 348 340 334 335 329 328 326 325 325 330 331 330 328 328 326 328 333 334 330 330 328 327 330 334 336 338 343 350 346 343 334 336 332 326 328 321 320 319 264 230 221 221 220 220 220 212 217 221 225 227 225 225 224 224 223
180 193 221 191 185 108 98 158 171 153 176 179 187 228 229 129 163 141 168 124 92 41 11 5 353 338 272 246 118 62 345 339 336 329 330 325 324 324 325 324 322 326 326 323 320 321 325 325 331 329 326 326 325 325 328 330 329 330 342 346 341 335 330 326 317 316 317 313 317 301 308 281 246 235 227 224 222 215 220 224 230 232 230 231 230 228 227
212 210 215 232 234 152 167 169 158 166 177 175 218 278 217 147 178 158 150 130 83 46 8 351 341 339 298 304 342 346 330 324 321 324 324 322 320 317 317 317 320 319 315 313 316 323 324 324 323 325 325 322 318 320 321 324 323 325 333 337 329 322 323 320 317 313 302 305 296 300 294 292 295 256 240 235 222 216 221 225 230 231 231 231 233 232 231
166 210 240 302 252 226 159 171 165 158 160 190 234 237 107 166 168 177 158 154 161 161 297 331 301 288 303 302 306 310 313 311 314 317 314 312 315 314 313 314 319 312 313 313 311 314 317 316 317 320 324 318 316 315 314 314 315 318 323 324 323 322 316 315 314 304 300 292 294 292 286 289 291 296 264 242 234 228 225 227 229 231 231 233 234 237 236
218 209 251 270 282 207 141 127 161 159 175 215 220 67 112 154 171 171 194 206 198 211 248 263 268 287 297 294 292 302 308 312 311 308 310 311 310 307 309 308 305 307 309 308 306 306 309 310 309 315 317 314 309 311 310 306 308 316 317 315 317 319 316 313 309 307 301 294 288 287 293 291 289 288 312 294 258 232 228 226 226 228 229 230 234 238 238
80 180 239 297 274 83 149 131 143 181 237 65 91 135 170 177 178 183 196 222 216 227 264 260 273 282 290 292 298 299 299 302 304 307 310 310 309 312 312 309 310 309 307 306 305 304 306 308 309 306 311 306 302 303 300 300 306 312 314 313 314 312 313 310 306 304 300 298 297 296 281 274 270 260 251 245 242 242 234 227 224 226 225 225 231 237 240
168 180 192 203 13 96 171 172 183 185 216 108 147 163 178 187 202 203 216 209 227 241 254 276 281 283 283 287 290 293 295 297 299 299 300 299 300 301 302 302 306 307 299 297 299 301 302 302 302 300 300 301 296 293 292 299 304 306 307 311 310 309 308 306 308 306 306 302 300 303 299 279 270 275 269 265 258 236 234 235 233 227 227 226 229 234 237
208 198 209 114 284 251 203 233 42 121 133 137 157 197 224 182 202 210 229 234 224 232 256 264 272 275 271 284 290 292 297 299 300 301 299 298 297 297 299 301 302 300 297 297 295 295 297 299 298 294 290 292 294 290 290 296 300 301 304 306 308 307 304 305 306 309 306 301 300 299 298 292 281 269 264 260 254 248 236 234 236 235 235 236 238 238 236
255 278 246 268 268 236 236 229 235 205 155 162 190 205 208 203 211 193 226 243 253 257 246 271 268 263 278 280 285 290 293 295 297 296 295 293 292 291 291 292 296 297 296 293 292 293 294 293 292 286 284 286 288 289 291 292 291 294 296 300 302 303 301 297 300 303 304 300 295 295 293 288 282 267 261 257 252 247 242 241 236 234 237 238 239 241 245
152 244 147 209 227 221 230 231 222 224 239 239 207 212 221 231 210 210 222 240 252 259 272 265 272 285 289 286 286 286 287 288 292 295 295 293 291 292 292 290 293 293 294 292 290 290 291 293 290 283 281 281 283 286 288 287 288 288 288 289 292 297 296 295 294 295 300 295 294 294 294 291 285 281 267 258 261 263 252 245 242 241 238 238 239 241 243
214 257 126 220 288 257 245 240 242 248 241 209 198 211 220 232 232 229 231 220 237 244 256 259 276 282 285 291 292 292 292 293 294 293 293 292 291 288 286 289 288 286 284 285 286 288 288 288 288 282 278 281 284 285 285 285 287 286 283 282 286 290 293 293 291 294 294 292 289 286 289 288 288 283 273 261 253 251 252 249 246 242 241 240 237 234 236
235 266 265 246 241 260 246 232 236 239 234 219 201 204 218 230 234 229 221 213 236 232 247 266 271 275 280 285 290 292 296 298 296 292 290 290 288 288 288 289 287 283 283 282 283 284 284 286 286 282 276 277 279 276 276 280 280 282 282 283 283 282 287 291 289 287 289 291 286 286 287 283 272 269 272 274 266 258 252 252 253 250 247 249 243 239 231
231 232 234 173 222 253 221 212 221 224 226 222 230 211 211 220 225 230 235 228 222 233 250 260 261 268 276 281 287 290 294 295 294 293 291 291 291 291 291 290 287 284 281 279 279 280 279 282 283 280 276 273 273 269 272 276 277 279 283 286 285 282 280 279 285 290 291 291 289 286 287 287 288 280 265 253 255 264 269 271 285 295 300 276 270 261 255
246 232 218 183 224 263 268 228 189 207 200 197 211 220 222 220 224 230 235 251 251 240 243 244 256 265 274 281 288 291 292 292 293 293 294 294 294 295 295 291 287 283 282 281 279 278 278 278 278 278 276 275 270 266 265 271 275 275 276 277 279 280 282 281 288 293 295 294 288 282 282 282 284 285 287 271 239 237 244 253 262 268 273 274 277 276 272
246 270 265 174 203 230 251 191 193 195 175 186 204 219 219 226 235 230 235 243 257 267 262 259 261 277 282 286 289 290 290 291 295 296 295 293 292 292 290 286 284 283 281 280 278 278 278 276 276 278 279 275 271 270 268 267 268 267 266 267 268 268 274 275 285 286 288 285 283 282 282 277 275 276 279 282 280 236 230 242 244 248 251 255 258 257 257
245 239 222 182 213 235 254 76 218 202 177 192 208 215 214 216 222 226 233 242 243 254 264 270 275 274 280 284 287 288 294 297 296 295 294 293 292 291 289 286 281 279 278 276 277 276 276 275 275 277 278 276 274 272 269 267 266 264 261 260 262 266 268 271 275 276 276 277 274 270 272 274 273 270 270 274 282 294 266 219 232 243 246 247 249 253 249
242 253 92 143 201 238 197 225 235 215 186 191 206 223 220 218 225 220 224 236 249 250 259 272 279 280 281 285 292 295 295 294 295 294 292 290 290 288 286 283 280 278 276 274 271 272 272 272 273 274 274 273 271 268 265 259 256 258 263 262 262 261 259 253 257 261 265 268 264 263 260 261 267 280 285 286 289 290 293 297 282 253 241 242 246 247 249
240 234 172 231 240 229 189 211 239 157 193 187 207 218 219 220 226 243 243 240 249 260 266 270 275 283 287 288 294 294 294 296 296 292 289 288 287 287 288 287 285 281 277 272 269 267 269 270 270 268 269 271 271 266 263 266 267 267 265 262 258 260 262 265 264 263 263 262 260 262 269 276 280 281 279 283 286 286 288 288 289 285 289 271 233 218 235
237 210 198 219 234 242 201 208 237 200 168 181 192 211 217 186 211 228 236 245 245 251 259 267 277 288 296 301 302 300 298 295 293 292 290 286 286 285 286 286 284 280 275 271 268 267 266 265 266 266 267 269 269 265 263 261 261 260 260 261 262 257 255 260 264 263 262 264 271 276 279 278 280 280 281 282 278 277 276 274 276 280 282 273 278 259 230
234 216 207 220 238 74 98 130 153 175 194 191 190 198 188 217 227 236 250 257 268 276 276 280 287 296 298 300 301 300 298 297 295 292 289 287 286 284 284 285 284 280 274 270 266 265 263 263 263 263 264 264 265 263 259 258 258 257 258 261 262 259 255 254 258 261 263 268 276 284 289 286 281 278 279 274 271 271 268 266 265 269 270 279 280 276 239
220 198 199 214 216 179 185 189 191 183 201 193 192 209 213 226 246 253 260 268 273 276 279 290 298 297 299 299 299 300 301 300 299 296 292 290 287 286 285 284 284 283 278 271 267 262 259 257 257 258 259 260 262 260 255 254 253 253 257 259 259 258 255 255 254 256 261 268 276 281 279 273 269 269 269 270 267 268 268 267 267 267 266 268 266 267 269
184 184 190 190 189 198 210 208 193 201 203 196 186 225 224 214 239 255 260 266 269 274 290 297 298 298 300 300 301 300 298 298 296 295 294 292 289 287 288 288 285 281 275 268 260 259 255 253 254 255 255 258 259 257 256 258 258 257 258 257 257 250 249 252 253 262 273 279 279 277 275 272 270 268 266 271 270 266 267 270 266 259 258 259 254 258 258
160 162 166 174 183 188 194 192 197 208 214 172 184 223 235 237 240 247 257 266 279 294 300 299 297 300 301 302 300 298 299 298 296 296 297 295 294 294 296 294 285 279 271 260 257 253 254 253 253 252 253 254 255 254 254 255 255 256 256 258 258 262 255 251 261 262 263 265 269 270 270 272 269 270 274 272 272 273 273 271 264 260 258 261 262 261 257
160 154 168 173 172 190 203 199 209 228 216 213 220 231 247 244 250 258 265 278 292 299 297 296 299 301 303 301 300 300 299 297 301 300 301 302 302 304 302 299 291 280 265 256 254 248 245 248 252 256 254 253 254 253 251 250 254 259 263 260 261 261 259 258 267 275 272 268 262 258 262 266 274 276 274 273 271 270 270 268 270 269 261 260 261 264 262
182 188 188 184 187 192 208 218 205 224 232 233 235 239 243 242 238 255 268 284 294 298 299 302 302 303 302 301 301 300 301 304 304 306 309 308 307 308 309 307 298 285 270 250 245 246 244 245 250 252 253 254 255 256 252 250 252 255 256 258 260 261 265 268 263 267 270 268 267 273 278 280 279 275 274 272 273 273 269 271 275 275 272 266 262 260 246
194 174 159 172 180 193 194 217 204 202 219 238 244 239 240 248 255 261 271 290 299 303 304 304 305 305 304 302 301 299 303 304 307 310 309 308 308 312 311 312 307 285 261 244 243 244 245 247 246 248 248 247 246 246 246 247 252 255 260 262 264 265 270 274 274 271 273 274 279 280 276 272 272 274 276 278 278 274 272 269 266 265 270 269 264 256 237
180 152 145 147 169 182 194 203 216 220 218 238 255 270 270 267 260 257 285 304 309 306 308 309 310 308 305 307 304 306 311 310 310 309 309 311 308 308 311 313 320 306 261 258 248 244 247 248 245 242 240 235 229 227 230 239 252 256 259 260 264 269 272 273 274 276 273 276 275 275 274 276 280 278 276 277 278 276 274 271 268 265 261 261 263 261 249
191 178 171 176 179 190 191 195 197 197 210 224 246 253 267 263 258 292 308 307 309 310 312 315 313 311 311 309 314 319 314 309 310 308 313 313 310 316 318 328 327 339 328 286 288 260 240 238 241 239 234 227 224 214 227 240 249 255 260 260 264 263 266 274 274 274 273 276 275 276 277 282 278 280 283 284 282 283 281 277 279 282 282 288 303 296 281
191 188 179 184 190 192 200 195 187 191 199 217 229 242 261 257 293 309 308 310 312 316 317 318 317 317 308 328 334 320 315 315 313 311 315 317 319 323 321 331 338 333 335 346 337 334 318 278 253 242 197 207 214 224 239 243 255 251 231 248 246 244 252 265 271 272 277 277 277 278 282 280 283 290 300 300 300 300 296 299 311 320 335 3 18 44 52
181 181 182 180 176 184 173 156 165 181 195 224 249 249 200 220 308 307 309 318 320 324 328 330 325 318 329 334 325 324 323 323 318 313 319 321 326 330 315 324 321 326 320 329 334 326 337 353 356 291 255 234 230 234 238 247 249 212 232 237 237 236 241 247 253 272 278 281 281 284 284 280 287 299 308 312 321 320 319 342 360 18 31 41 51 53 58
179 177 185 181 190 178 177 176 180 187 188 207 247 266 107 193 309 311 324 326 334 338 340 336 332 338 341 334 329 326 332 327 322 323 329 323 330 336 317 316 331 324 326 347 349 336 344 350 347 312 285 252 242 228 231 235 245 207 216 219 227 221 226 232 250 276 277 282 284 286 283 287 308 319 327 348 353 357 360 5 24 40 43 49 56 63 68
271 199 183 188 180 164 176 172 185 188 189 191 194 166 155 140 321 334 336 336 339 345 346 343 343 340 342 342 339 339 335 337 330 332 333 322 334 346 327 342 340 325 323 350 355 350 351 350 341 348 319 301 280 273 236 217 218 199 194 198 207 179 192 216 193 263 291 286 289 282 291 308 317 340 18 34 35 39 40 40 45 52 55 57 63 68 70
269 283 219 182 166 169 168 166 163 191 176 113 125 142 134 107 5 354 345 345 343 356 354 349 352 354 349 348 349 351 347 349 348 348 343 336 334 341 330 338 342 325 342 355 358 358 353 357 348 340 335 301 311 37 56 132 169 172 161 151 144 123 131 134 127 97 25 323 268 298 13 89 70 67 65 60 58 58 54 54 55 57 60 63 64 67 73
194 198 179 160 174 168 161 169 190 170 102 107 131 133 125 91 56 26 12 10 1 357 357 353 359 3 3 357 357 358 356 353 358 356 352 339 337 347 333 326 334 334 352 3 355 353 352 349 344 331 340 348 21 53 84 92 109 135 143 128 113 94 90 88 93 86 92 86 76 99 114 106 91 86 78 71 63 61 62 62 62 59 61 64 69 70 71
150 157 133 137 181 180 183 189 169 130 125 125 126 124 115 96 61 36 30 24 13 6 5 3 2 8 8 8 7 0 1 2 358 355 349 344 339 349 335 331 341 349 1 10 356 349 346 351 353 355 1 22 41 69 76 71 80 85 92 93 94 88 83 71 67 75 88 90 86 90 98 93 89 89 89 83 80 77 77 78 78 76 73 73 74 74 76
167 141 137 207 199 188 202 195 155 131 128 132 130 121 109 96 67 58 47 38 22 12 5 5 11 14 13 11 12 10 3 7 3 359 360 356 349 355 342 358 5 2 5 14 6 1 343 9 15 18 24 30 48 56 62 67 72 79 81 73 74 69 64 67 79 87 85 83 86 87 85 88 93 92 91 87 84 81 79 79 78 76 76 76 76 80 79
154 130 149 190 197 205 204 129 118 129 135 137 122 112 103 89 84 75 58 38 31 22 17 20 20 16 14 12 8 9 9 15 14 7 8 1 352 340 351 12 11 18 18 15 1 5 1 28 32 29 33 37 37 37 38 50 63 67 64 57 66 68 61 67 70 75 77 83 79 74 77 84 87 85 86 87 90 89 89 87 84 82 83 84 86 87 88
144 126 155 182 185 169 123 126 133 138 143 139 134 125 114 104 95 80 59 47 34 33 34 33 28 25 21 23 15 9 6 5 18 9 360 359 354 358 10 16 25 27 27 18 11 17 19 30 37 38 37 39 38 32 31 36 41 50 52 61 60 69 66 74 75 65 56 60 66 71 79 81 85 88 95 95 95 93 93 90 90 92 93 91 90 89 89
139 139 164 170 152 144 138 135 146 155 151 136 122 120 120 115 104 84 68 57 49 43 38 33 26 27 32 35 33 29 18 9 14 17 357 356 358 354 2 21 34 40 35 27 26 29 33 35 38 41 40 38 29 22 25 34 42 49 52 57 59 60 54 53 52 63 68 66 65 61 63 65 76 88 94 93 91 91 91 92 94 93 91 87 86 87 87
127 133 128 117 134 155 140 141 149 147 140 134 133 127 133 127 117 103 87 73 63 52 40 27 19 25 30 37 35 21 26 30 27 16 354 2 6 5 11 28 37 39 37 34 29 24 35 36 36 39 39 33 27 25 27 33 37 44 45 49 51 54 51 51 54 57 61 63 65 60 58 59 61 66 76 82 89 88 89 89 89 92 93 92 89 87 86
128 116 112 118 152 148 134 139 137 135 139 140 129 130 135 131 120 103 96 80 68 52 37 30 36 34 33 27 21 20 11 25 30 22 18 16 21 28 22 19 35 42 39 35 34 31 34 36 34 34 33 24 25 31 28 35 41 44 49 48 51 50 54 59 58 57 59 62 56 44 47 56 65 72 72 71 74 78 78 79 82 83 86 88 86 83 79
151 126 102 96 76 65 68 94 123 134 134 129 131 133 138 127 118 111 95 78 58 52 50 46 40 37 33 32 31 29 23 20 25 28 23 26 23 26 33 28 27 35 43 41 33 32 30 35 37 35 30 27 23 27 32 34 39 44 44 46 48 48 48 51 55 58 55 54 55 51 45 46 52 53 52 52 60 68 68 67 68 74 77 78 81 81 81
105 87 88 87 90 79 81 97 110 113 117 130 136 137 140 132 129 116 103 76 55 53 54 55 54 37 34 35 34 38 37 30 17 11 25 26 28 28 26 28 29 28 25 31 32 32 34 41 44 43 42 35 28 29 34 36 32 36 41 43 47 47 49 51 49 46 48 45 38 50 58 49 48 54 55 59 56 58 62 57 55 53 52 47 56 65 70